Regional Weather Roundup
Issued by NWS

Home | Current Version | Previous Version | Text Only | Print | Product List | Glossary Off
Versions: 1 2 3 4 5 6 7 8 9 10 11 12 13 14 15 16 17 18 19 20 21 22 23 24 25 26 27 28 29 30 31 32 33 34 35 36 37 38 39 40 41 42 43 44 45 46 47 48 49 50

000
ASUS43 KMPX 030210
RWRMN
WEATHER ROUNDUP FOR MINNESOTA
NATIONAL WEATHER SERVICE TWIN CITIES/CHANHASSEN MN
900 PM CDT SUN AUG 02 2015


NOTE: "FAIR" INDICATES FEW OR NO CLOUDS BELOW 12,000 FEET WITH NO
SIGNIFICANT WEATHER AND/OR OBSTRUCTIONS TO VISIBILITY. N/A MEANS
CURRENT SKY AND/OR WEATHER CONDITIONS ARE NOT AVAILABLE.

MNZ060>063-068>070-030300-
   Twin Cities Metro

CITY           SKY/WX    TMP DP  RH WIND       PRES   REMARKS
TWIN CITIES    CLEAR     75  51  43 NW16G28   29.77R
ST PAUL        CLEAR     74  52  46 NW18      29.77R
CRYSTAL        CLEAR     74  50  42 NW13      29.77R
LAKEVILLE      CLEAR     70  55  60 NW13      29.78R
EDEN PRAIRIE   CLEAR     74  54  49 NW12      29.78R
SOUTH ST PAUL  CLEAR     75  51  41 NW20G26   29.76R
LAKE ELMO      FAIR      72  54  53 NW8       29.78R
$$
MNZ001>005-007-008-013>017-022>024-027-028-030300-
   Northwest Minnesota

CITY           SKY/WX    TMP DP  RH WIND       PRES   REMARKS
BEMIDJI        CLEAR     62  43  50 NW8       29.81S
HALLOCK        CLEAR     64  48  55 N6        29.81S
ROSEAU         CLEAR     63  48  59 W5        29.80S
WARROAD        CLEAR     64  46  52 W8        29.79S
THIEF RVR FALL PTCLDY    66  52  59 CALM      29.82S
CROOKSTON      CLEAR     66  52  59 NW7       29.83R
FOSSTON        CLEAR     63  48  59 CALM      29.83S
DETROIT LAKES  CLEAR     66  48  52 W6        29.86S
MOORHEAD       CLEAR     64  54  68 NW7       29.85S
PARK RAPIDS    CLEAR     63  48  58 W6        29.82S
MAHNOMEN       FAIR      62  55  76 W5        29.83S
$$
MNZ006-009>011-018-025>026-030300-
   North Central Minnesota

CITY           SKY/WX    TMP DP  RH WIND       PRES   REMARKS
BAUDETTE       CLOUDY    65  47  52 NW10      29.77R
FLAG ISLAND    CLOUDY    66  48  52 W13       29.75S
INTL FALLS     CLOUDY    62  47  57 W5        29.75R
WASKISH        CLEAR     66  48  52 W14       29.79S
BIG FORK       CLOUDY    66  45  45 NW5       29.78R
LONGVILLE      CLEAR     66  46  48 W6        29.81R
GRAND RAPIDS   CLEAR     66  43  42 NW15G21   29.78S
CRANE LAKE     CLOUDY    63  48  59 NW2       29.75R
ORR            CLOUDY    64  43  45 NW8       29.73R
COOK           MOCLDY    63  46  55 CALM      29.75S
WALKER         FAIR      63  46  54 NW6       29.81S
$$
MNZ012-019>021-037-030300-
   Northeast Minnesota

CITY           SKY/WX    TMP DP  RH WIND       PRES   REMARKS
DULUTH         PTCLDY    65  46  50 W8        29.75R
ELY            CLOUDY    63  45  51 N7G18     29.74R
HIBBING        CLOUDY    65  48  54 W10       29.76R
EVELETH        PTCLDY    64  43  45 NW9       29.76R
DULUTH HARBOR  CLEAR     70  54  56 W9        29.73R
TWO HARBORS    MOCLDY    66  52  59 CALM      29.71R
SILVER BAY     CLEAR     63  46  55 CALM      29.70R
GRAND MARAIS     N/A     66  47  50 NW5       29.66R
G MARAIS ARPRT   N/A     61  45  55 NW10G21   29.71R
$$
MNZ029>031-032-039>041-046>048-054>057-064-030300-
   West Central Minnesota

CITY           SKY/WX    TMP DP  RH WIND       PRES   REMARKS
FERGUS FALLS   CLEAR     64  54  68 N5        29.85R
WHEATON        CLEAR     64  54  68 NW6       29.88R
MORRIS         CLEAR     66  55  68 NW8       29.85R
ALEXANDRIA     CLEAR     68  51  54 NW8       29.86R
ELBOW LAKE     FAIR      67  52  58 NW8       29.86R
WADENA         CLEAR     63  46  55 CALM      29.84S
GLENWOOD       CLEAR     64  54  68 NW7       29.86R
APPLETON       CLEAR     68  54  60 NW6       29.85R
BENSON         CLEAR     64  54  68 N6        29.85R
ORTONVILLE     CLEAR     68  55  64 N7        29.86R
MADISON        CLEAR     68  57  68 N5        29.86R
WILLMAR        FAIR      68  57  68 NW5       29.85R
$$
MNZ033>034-036-042>043-049>051-058-059-030300-
   Central Minnesota

CITY           SKY/WX    TMP DP  RH WIND       PRES   REMARKS
ST CLOUD       CLEAR     65  52  62 NW7       29.80R
SAUK CENTRE    FAIR      67  53  59 W6        29.84R
PAYNESVILLE    CLEAR     62  54  73 SW3       29.83S
AITKIN         CLEAR     66  46  48 NW3       29.79R
PINE RIVER     CLEAR     66  48  52 W5        29.85R
BRAINERD       CLEAR     68  46  45 NW9       29.81R
STAPLES        CLEAR     63  46  55 NW7       29.84R
LONG PRAIRIE   FAIR      64  52  63 NW8       29.84R
LITTLE FALLS   CLEAR     68  46  45 NW5       29.82R
LITCHFIELD     CLEAR     70  54  56 NW6       29.83S
BUFFALO        CLEAR     71  49  46 NW6       29.81S
MAPLE LAKE     CLEAR     70  54  56 W5        29.82R
$$
MNZ037-044-045-052-053-030300-
   East Central Minnesota

CITY           SKY/WX    TMP DP  RH WIND       PRES   REMARKS
PRINCETON      CLEAR     66  52  59 W6        29.80R
MORA           CLEAR     63  52  67 CALM      29.81R
CAMBRIDGE      CLEAR     72  54  53 W7        29.77R
RUSH CITY      CLEAR     67  51  57 NW3       29.78R
MOOSE LAKE     CLEAR     61  50  67 W3        29.75S
HINCKLEY       FAIR      64  50  59 NW3       29.78R
CLOQUET        CLEAR     64  45  48 W6        29.76S
MCGREGOR       CLEAR     64  46  52 NW6       29.79R
$$
MNZ071>073-080-081-089-090-097-098-030300-
   Southwest Minnesota

CITY           SKY/WX    TMP DP  RH WIND       PRES   REMARKS
MONTEVIDEO     CLEAR     70  55  60 N8        29.87R
GRANITE FALLS  CLEAR     68  60  74 NW5       29.86S
CANBY          CLEAR     70  59  68 W3        29.88R
MARSHALL       CLEAR     70  55  60 NW6       29.88R
REDWOOD FALLS  CLEAR     71  58  63 NW7       29.84R
OLIVIA         CLEAR     68  57  68 NW3       29.84R
PIPESTONE      CLEAR     72  61  68 CALM      29.90R
WINDOM         CLEAR     66  57  72 NW9       29.86S
WORTHINGTON    CLEAR     68  57  68 N7        29.88R
JACKSON        CLEAR     70  59  68 NW8       29.87R
TRACY          CLEAR     70  59  68 CALM      29.87S
SLAYTON        CLEAR     68  59  74 CALM      29.89S
$$
MNZ065>067-074>077-082>085-091>093-030300-
   South Central Minnesota

CITY           SKY/WX    TMP DP  RH WIND       PRES   REMARKS
MANKATO        CLEAR     72  55  56 NW13G18   29.81R
NEW ULM        CLEAR     68  55  64 NW6       29.83R
ST JAMES       CLEAR     66  61  82 NW6       29.85R
FAIRMONT       CLEAR     72  55  56 NW10      29.84R
GLENCOE        CLEAR     70  58  66 NW7       29.81R
FARIBAULT      CLEAR     70  57  64 W9        29.80R
OWATONNA       CLEAR     70  57  64 NW7       29.80R
WASECA         CLEAR     70  59  68 NW7       29.82R
ALBERT LEA     CLEAR     72  61  68 W6        29.80R
$$
MNZ078>079-086>088-094>096-030300-
   Southeast Minnesota

CITY           SKY/WX    TMP DP  RH WIND       PRES   REMARKS
ROCHESTER      CLEAR     70  59  68 NW12      29.78R
RED WING       CLEAR     75  55  50 NW7       29.74R
STANTON        CLEAR     70  57  63 NW8       29.76R
DODGE CENTER   CLEAR     72  57  60 NW9       29.79
WINONA         PTCLDY    77  63  61 NW7       29.72R
AUSTIN         CLEAR     73  57  56 NW8       29.79R
PRESTON        CLEAR     72  58  61 NW13      29.77R
$$
ABBREVIATIONS USED IN REMARKS
   TC - TEMPERATURES IN CELSIUS
  WCI - WIND CHILL INDEX
   HX - HEAT INDEX
  VSB - VISIBILITY
$$


USA.gov is the U.S. government's official web portal to all federal, state and local government web resources and services.